TimeCXT,TemperatureF,Dew PointF,Humidity,Sea Level PressureIn,VisibilityMPH,Wind Direction,Wind SpeedMPH,Gust SpeedMPH,PrecipitationIn,Events,Conditions,WindDirDegrees,DateUTC
12:00 AM,77,75,92,29.84,,SE,9.2,,,,Overcast,130,2012-11-26 17:00:00
12:00 AM,77.0,75.2,94,29.86,6.2,SE,9.2,-,N/A,,Mostly Cloudy,130,2012-11-26 17:00:00
1:00 AM,77,75,92,29.82,,SE,8.1,,,,,130,2012-11-26 18:00:00
1:00 AM,77.0,75.2,94,29.86,6.2,SE,8.1,-,N/A,,Mostly Cloudy,130,2012-11-26 18:00:00
2:00 AM,77.0,75.2,94,29.83,6.2,SE,8.1,-,N/A,,Overcast,130,2012-11-26 19:00:00
3:00 AM,77,76,95,29.79,,SSE,4.6,,,,Overcast,150,2012-11-26 20:00:00
3:00 AM,77.0,75.2,94,29.83,6.2,SSE,4.6,-,N/A,,Mostly Cloudy,150,2012-11-26 20:00:00
4:00 AM,75,73,93,29.80,,NNE,12.7,,,,,20,2012-11-26 21:00:00
4:00 AM,75.2,73.4,94,29.83,6.2,NNE,12.7,-,N/A,,Overcast,20,2012-11-26 21:00:00
4:06 AM,73.4,73.4,100,29.83,3.7,NE,10.4,-,N/A,,Overcast,50,2012-11-26 21:06:00
4:29 AM,75.2,73.4,94,29.83,3.7,ENE,3.5,-,N/A,,Overcast,70,2012-11-26 21:29:00
5:00 AM,75.2,73.4,94,29.83,6.2,ESE,2.3,-,N/A,,Overcast,120,2012-11-26 22:00:00
5:18 AM,75.2,73.4,94,29.83,-9999.0,East,9.2,-,N/A,,Overcast,90,2012-11-26 22:18:00
5:56 AM,75.2,73.4,94,29.83,0.6,ESE,8.1,-,N/A,,Mostly Cloudy,120,2012-11-26 22:56:00
5:57 AM,75.2,73.4,94,29.86,0.6,ESE,8.1,-,N/A,,Mostly Cloudy,120,2012-11-26 22:57:00
6:00 AM,74,74,98,29.82,0,ESE,6.9,,,,Overcast,120,2012-11-26 23:00:00
6:00 AM,75.2,73.4,94,29.86,0.4,ESE,6.9,-,N/A,,Overcast,120,2012-11-26 23:00:00
7:00 AM,74,73,97,29.84,,NE,4.6,,,,,50,2012-11-27 00:00:00
7:00 AM,75.2,73.4,94,29.89,3.7,NE,4.6,-,N/A,,Mostly Cloudy,50,2012-11-27 00:00:00
8:00 AM,75.2,73.4,94,29.86,0.7,NNE,9.2,-,N/A,,Overcast,30,2012-11-27 01:00:00
9:00 AM,75,74,95,29.85,,North,8.1,,,,Overcast,10,2012-11-27 02:00:00
9:00 AM,75.2,73.4,94,29.89,6.2,North,8.1,-,N/A,,Overcast,10,2012-11-27 02:00:00
9:06 AM,75.2,75.2,100,29.89,6.2,North,6.9,-,N/A,,Overcast,10,2012-11-27 02:06:00
9:11 AM,75.2,75.2,100,29.89,6.2,North,6.9,-,N/A,,Overcast,10,2012-11-27 02:11:00
9:27 AM,77.0,75.2,94,29.89,6.2,NNE,5.8,-,N/A,,Overcast,30,2012-11-27 02:27:00
10:00 AM,75,74,95,29.86,,East,4.6,,,,,80,2012-11-27 03:00:00
10:00 AM,75.2,73.4,94,29.89,0.3,East,4.6,-,N/A,,Overcast,80,2012-11-27 03:00:00
11:00 AM,77.0,77.0,100,29.89,1.6,NE,5.8,-,N/A,,Overcast,50,2012-11-27 04:00:00
11:46 AM,75.2,73.4,94,29.89,6.2,North,4.6,-,N/A,,Overcast,360,2012-11-27 04:46:00
12:00 PM,77,76,95,29.84,6,NE,8.1,,,,Overcast,40,2012-11-27 05:00:00
12:00 PM,77.0,75.2,94,29.86,5.6,NE,8.1,-,N/A,,Overcast,40,2012-11-27 05:00:00
12:20 PM,77.0,77.0,100,29.86,3.7,NNE,6.9,-,N/A,,Overcast,30,2012-11-27 05:20:00
1:00 PM,75,74,94,29.81,,North,5.8,,,,,0,2012-11-27 06:00:00
1:00 PM,75.2,73.4,94,29.86,6.2,North,5.8,-,N/A,,Overcast,360,2012-11-27 06:00:00
1:06 PM,75.2,75.2,100,29.83,6.2,NNE,4.6,-,N/A,,Overcast,20,2012-11-27 06:06:00
1:15 PM,77.0,75.2,94,29.83,3.7,East,5.8,-,N/A,,Overcast,80,2012-11-27 06:15:00
2:00 PM,78.8,77.0,94,29.83,4.3,ENE,6.9,-,N/A,,Overcast,70,2012-11-27 07:00:00
3:00 PM,78,77,94,29.77,,East,6.9,,,,Overcast,90,2012-11-27 08:00:00
3:00 PM,78.8,77.0,94,29.80,6.2,East,6.9,-,N/A,,Overcast,90,2012-11-27 08:00:00
4:00 PM,78,76,94,29.76,,East,6.9,,,,,80,2012-11-27 09:00:00
4:00 PM,78.8,77.0,94,29.80,6.2,East,6.9,-,N/A,,Mostly Cloudy,80,2012-11-27 09:00:00
5:00 PM,78.8,77.0,94,29.83,6.2,East,5.8,-,N/A,,Overcast,90,2012-11-27 10:00:00
6:00 PM,78,76,93,29.80,4,SSE,1.2,,,,,160,2012-11-27 11:00:00
6:02 PM,78.8,77.0,94,29.83,4.3,SSE,1.2,-,N/A,,Mostly Cloudy,160,2012-11-27 11:02:00
7:00 PM,77,75,91,29.81,,East,1.2,,,,,100,2012-11-27 12:00:00
7:00 PM,77.0,75.2,94,29.86,5.6,East,1.2,-,N/A,,Scattered Clouds,100,2012-11-27 12:00:00
7:20 PM,77.0,75.2,94,29.86,3.7,Calm,Calm,-,N/A,,Scattered Clouds,0,2012-11-27 12:20:00
7:55 PM,77.0,75.2,94,29.86,4.3,ENE,3.5,-,N/A,,Scattered Clouds,70,2012-11-27 12:55:00
8:00 PM,77.0,75.2,94,29.86,4.3,ENE,3.5,-,N/A,,Scattered Clouds,70,2012-11-27 13:00:00
8:08 PM,77.0,75.2,94,29.86,3.7,East,3.5,-,N/A,,Mostly Cloudy,90,2012-11-27 13:08:00
9:00 PM,78,76,94,29.83,3,East,4.6,,,,Overcast,80,2012-11-27 14:00:00
9:00 PM,77.0,77.0,100,29.86,2.8,ENE,4.6,-,N/A,,Mostly Cloudy,70,2012-11-27 14:00:00
10:00 PM,77.0,77.0,100,29.89,3.1,East,5.8,-,N/A,,Mostly Cloudy,90,2012-11-27 15:00:00
10:57 PM,77.0,77.0,100,29.89,5.0,East,6.9,-,N/A,,Overcast,100,2012-11-27 15:57:00
11:00 PM,77.0,77.0,100,29.89,5.6,East,6.9,-,N/A,,Overcast,100,2012-11-27 16:00:00
11:29 PM,77.0,77.0,100,29.89,3.7,ENE,3.5,-,N/A,,Overcast,70,2012-11-27 16:29:00